CW4185 Weather Reports


time (UTC)temp
C
wind
direction
speed
KPH
gust
KPH
rain 1hr
cm
rain 24hr
cm
rain mn
cm
humidity
%
barometer
mb
20260505011648 21 164 8.0 9.7 0.00 0.00 0.00 61 1013.5
20260505011147 21 158 8.0 9.7 0.00 0.00 0.00 61 1013.5
20260505010647 21 166 8.0 9.7 0.00 0.00 0.00 60 1013.5
20260505010148 21 140 8.0 12.9 0.00 0.00 0.00 59 1013.5
20260505005648 21 156 8.0 11.3 0.00 0.00 0.00 59 1013.5
20260505005148 21 158 4.8 9.7 0.00 0.00 0.00 58 1013.5
20260505004650 21 142 4.8 9.7 0.00 0.00 0.00 58 1013.5
20260505004146 21 149 9.7 11.3 0.00 0.00 0.00 58 1013.5
20260505003648 21 166 9.7 12.9 0.00 0.00 0.00 57 1013.5
20260505003147 21 138 6.4 12.9 0.00 0.00 0.00 57 1013.5
20260505002646 21 161 9.7 12.9 0.00 0.00 0.00 57 1013.5
20260505002146 22 159 4.8 12.9 0.00 0.00 0.00 56 1013.5
20260505001646 22 159 6.4 12.9 0.00 0.00 0.00 54 1013.9
20260505001147 22 177 6.4 12.9 0.00 0.00 0.00 54 1013.9
20260505000646 22 164 11.3 14.5 0.00 0.00 0.00 54 1013.5
20260505000153 22 153 8.0 12.9 0.00 0.00 0.00 53 1013.5
20260504235646 22 159 6.4 12.9 0.00 0.00 0.00 52 1013.5
20260504235146 22 153 9.7 17.7 0.00 0.00 0.00 52 1013.5
20260504234647 22 149 9.7 16.1 0.00 0.00 0.00 51 1013.5
20260504234146 22 170 11.3 16.1 0.00 0.00 0.00 51 1013.9
20260504233647 22 182 11.3 17.7 0.00 0.00 0.00 51 1013.9
20260504233148 22 127 9.7 16.1 0.00 0.00 0.00 52 1013.9
20260504232646 22 161 12.9 16.1 0.00 0.00 0.00 50 1013.9
20260504232146 23 173 12.9 17.7 0.00 0.00 0.00 49 1013.9
20260504231157 23 172 11.3 16.1 0.00 0.00 0.00 49 1014.2
20260504230646 23 165 12.9 22.5 0.00 0.00 0.00 48 1014.2
20260504230147 23 195 14.5 22.5 0.00 0.00 0.00 48 1014.2
20260504225647 23 186 12.9 17.7 0.00 0.00 0.00 48 1014.2
20260504225147 23 173 16.1 17.7 0.00 0.00 0.00 47 1014.2
20260504224646 23 163 9.7 19.3 0.00 0.00 0.00 47 1014.2
20260504224147 23 150 9.7 20.9 0.00 0.00 0.00 46 1014.2
20260504223646 23 164 6.4 17.7 0.00 0.00 0.00 46 1014.2
20260504223146 23 153 14.5 20.9 0.00 0.00 0.00 45 1014.2
20260504222647 23 130 4.8 11.3 0.00 0.00 0.00 45 1014.2
20260504222146 23 165 16.1 20.9 0.00 0.00 0.00 45 1014.2
20260504221646 23 172 14.5 19.3 0.00 0.00 0.00 45 1014.2
20260504221147 23 174 12.9 17.7 0.00 0.00 0.00 44 1014.6
20260504220646 23 169 11.3 17.7 0.00 0.00 0.00 43 1014.6
20260504220147 23 164 12.9 17.7 0.00 0.00 0.00 44 1014.6
20260504215646 23 186 8.0 20.9 0.00 0.00 0.00 43 1014.6
20260504215146 24 180 11.3 14.5 0.00 0.00 0.00 43 1014.6
20260504214646 23 149 12.9 20.9 0.00 0.00 0.00 43 1014.2
20260504214147 23 179 14.5 19.3 0.00 0.00 0.00 44 1014.2
20260504213646 23 165 9.7 20.9 0.00 0.00 0.00 44 1014.2
20260504213146 23 169 17.7 20.9 0.00 0.00 0.00 44 1014.6
20260504212647 23 143 14.5 19.3 0.00 0.00 0.00 44 1014.6
20260504212147 23 168 17.7 20.9 0.00 0.00 0.00 44 1014.6
20260504211647 23 207 12.9 16.1 0.00 0.00 0.00 43 1014.9
20260504211147 23 180 11.3 16.1 0.00 0.00 0.00 43 1014.9
20260504210648 23 195 12.9 20.9 0.00 0.00 0.00 42 1014.6
20260504210147 23 154 17.7 19.3 0.00 0.00 0.00 42 1014.6
20260504205647 24 160 16.1 20.9 0.00 0.00 0.00 41 1014.9
20260504205150 23 180 19.3 22.5 0.00 0.00 0.00 40 1014.9
20260504204647 23 159 11.3 20.9 0.00 0.00 0.00 40 1014.9
20260504204147 23 181 12.9 17.7 0.00 0.00 0.00 41 1015.2
20260504203646 23 164 20.9 22.5 0.00 0.00 0.00 40 1015.2
20260504203146 23 180 14.5 22.5 0.00 0.00 0.00 40 1015.2
20260504202650 24 155 11.3 24.1 0.00 0.00 0.00 38 1015.2
20260504202146 23 120 6.4 12.9 0.00 0.00 0.00 40 1015.2
20260504201647 24 169 11.3 19.3 0.00 0.00 0.00 38 1015.6
20260504201146 24 176 6.4 20.9 0.00 0.00 0.00 38 1015.6
20260504200647 23 246 12.9 19.3 0.00 0.00 0.00 39 1015.6
20260504200146 24 178 11.3 17.7 0.00 0.00 0.00 39 1015.9
20260504195646 25 180 14.5 22.5 0.00 0.00 0.00 39 1015.6
20260504195147 23 42 8.0 22.5 0.00 0.00 0.00 39 1015.9
20260504194646 24 240 8.0 24.1 0.00 0.00 0.00 37 1015.9
20260504194146 24 202 9.7 20.9 0.00 0.00 0.00 38 1015.9
20260504193646 23 185 6.4 19.3 0.00 0.00 0.00 38 1016.3
20260504193147 24 186 8.0 17.7 0.00 0.00 0.00 40 1015.9
20260504192647 24 175 14.5 19.3 0.00 0.00 0.00 39 1015.9
20260504192146 24 194 19.3 20.9 0.00 0.00 0.00 39 1015.9
20260504191648 23 159 16.1 25.7 0.00 0.00 0.00 40 1016.3
20260504191146 23 193 12.9 20.9 0.00 0.00 0.00 40 1015.9
20260504190647 23 169 14.5 22.5 0.00 0.00 0.00 40 1016.3
20260504190149 24 170 16.1 27.4 0.00 0.00 0.00 40 1016.6
20260504185646 23 171 8.0 17.7 0.00 0.00 0.00 40 1016.6
20260504185147 23 183 20.9 27.4 0.00 0.00 0.00 40 1016.6
20260504184646 23 171 11.3 20.9 0.00 0.00 0.00 40 1016.3
20260504184147 23 169 11.3 19.3 0.00 0.00 0.00 40 1016.9
20260504183647 23 183 9.7 19.3 0.00 0.00 0.00 41 1016.6
20260504183147 23 159 12.9 27.4 0.00 0.00 0.00 40 1016.9
20260504182647 23 205 9.7 19.3 0.00 0.00 0.00 42 1016.9
20260504182146 23 179 16.1 27.4 0.00 0.00 0.00 41 1016.9
20260504181647 23 177 11.3 20.9 0.00 0.00 0.00 42 1016.9
20260504181148 23 213 11.3 20.9 0.00 0.00 0.00 42 1016.6
20260504180647 23 197 9.7 17.7 0.00 0.00 0.00 42 1016.6
20260504180147 23 185 12.9 24.1 0.00 0.00 0.00 42 1016.9
20260504175647 23 195 14.5 24.1 0.00 0.00 0.00 43 1016.9
20260504175147 23 195 12.9 24.1 0.00 0.00 0.00 44 1016.6
20260504174647 23 219 16.1 17.7 0.00 0.00 0.00 43 1016.9
20260504174146 23 205 11.3 24.1 0.00 0.00 0.00 41 1017.3
20260504173646 23 158 12.9 16.1 0.00 0.00 0.00 44 1016.9
20260504173147 23 168 4.8 11.3 0.00 0.00 0.00 45 1016.6
20260504172647 23 207 9.7 11.3 0.00 0.00 0.00 44 1016.9
20260504172147 23 202 11.3 17.7 0.00 0.00 0.00 44 1016.9
20260504171647 23 173 4.8 14.5 0.00 0.00 0.00 45 1016.9
20260504171148 23 161 9.7 17.7 0.00 0.00 0.00 46 1016.9
20260504170650 23 152 14.5 22.5 0.00 0.00 0.00 45 1016.9
20260504170146 23 140 8.0 20.9 0.00 0.00 0.00 46 1016.9
20260504160148 23 165 9.7 12.9 0.00 0.00 0.00 46 1017.3
20260504151147 22 153 9.7 14.5 0.00 0.00 0.00 49 1017.9
20260504150647 22 185 8.0 16.1 0.00 0.00 0.00 46 1017.9
20260504150146 22 168 8.0 14.5 0.00 0.00 0.00 46 1017.6
20260504141149 21 194 6.4 8.0 0.00 0.00 0.00 56 1017.9
20260504140647 21 166 4.8 6.4 0.00 0.00 0.00 59 1017.9
20260504140146 21 152 1.6 6.4 0.00 0.00 0.00 56 1017.6
20260504130648 19 223 4.8 4.8 0.00 0.00 0.00 66 1017.9
20260504130146 18 180 0.0 3.2 0.00 0.00 0.00 68 1017.6
20260504120148 15 162 1.6 1.6 0.00 0.00 0.00 82 1017.3
20260504110646 14 141 0.0 3.2 0.00 0.00 0.00 85 1017.3
20260504110147 14 145 1.6 1.6 0.00 0.00 0.00 84 1016.9
20260504100149 15 193 1.6 3.2 0.00 0.00 0.00 79 1017.3
20260504081646 15 210 1.6 1.6 0.00 0.00 0.00 79 1017.3
20260504081147 15 235 1.6 1.6 0.00 0.00 0.00 79 1016.9
20260504080647 15 174 1.6 3.2 0.00 0.00 0.00 78 1017.3
20260504080147 15 229 0.0 1.6 0.00 0.00 0.00 78 1017.3
20260504070148 16 166 4.8 6.4 0.00 0.00 0.00 76 1017.6
20260504060146 17 197 3.2 3.2 0.00 0.00 0.00 72 1018.3
20260504050646 17 171 4.8 8.0 0.00 0.00 0.00 66 1019.0
20260504050146 17 210 3.2 4.8 0.00 0.00 0.00 66 1019.0
20260504045646 17 203 3.2 4.8 0.00 0.00 0.00 66 1019.0
20260504045147 17 209 4.8 6.4 0.00 0.00 0.00 66 1019.0
20260504044646 17 205 1.6 4.8 0.00 0.00 0.00 66 1019.0
20260504044146 17 199 4.8 4.8 0.00 0.00 0.00 66 1019.0
20260504043647 17 199 3.2 4.8 0.00 0.00 0.00 65 1019.0
20260504043146 17 212 3.2 6.4 0.00 0.00 0.00 66 1019.0
20260504042647 17 155 4.8 8.0 0.00 0.00 0.00 67 1019.0
20260504042146 17 221 4.8 6.4 0.00 0.00 0.00 67 1019.0
20260504041646 17 220 8.0 9.7 0.00 0.00 0.00 67 1019.0
20260504041146 17 226 6.4 12.9 0.00 0.00 0.00 68 1019.3
20260504040646 17 205 8.0 9.7 0.00 0.00 0.00 69 1019.0
20260504040146 18 216 6.4 9.7 0.00 0.00 0.00 68 1019.0
20260504035647 18 222 9.7 14.5 0.00 0.00 0.00 68 1019.3
20260504035147 18 252 4.8 9.7 0.00 0.00 0.00 67 1019.0
20260504034646 18 203 6.4 6.4 0.00 0.00 0.00 66 1019.0
20260504034149 18 176 4.8 8.0 0.00 0.00 0.00 66 1019.0
20260504033647 18 199 6.4 8.0 0.00 0.00 0.00 67 1019.0
20260504033146 18 177 3.2 8.0 0.00 0.00 0.00 67 1019.0
20260504032651 18 168 6.4 8.0 0.00 0.00 0.00 67 1019.0
20260504032147 18 163 1.6 4.8 0.00 0.00 0.00 66 1019.0
20260504031647 18 180 3.2 4.8 0.00 0.00 0.00 66 1019.0
20260504031146 18 169 3.2 4.8 0.00 0.00 0.00 66 1019.0
20260504030646 18 161 4.8 4.8 0.00 0.00 0.00 66 1019.0
20260504030147 18 151 3.2 4.8 0.00 0.00 0.00 65 1019.0
20260504025647 18 155 4.8 4.8 0.00 0.00 0.00 64 1019.0
20260504025147 18 141 4.8 4.8 0.00 0.00 0.00 63 1018.6
20260504024646 18 167 1.6 3.2 0.00 0.00 0.00 62 1019.0
20260504024151 19 44 0.0 4.8 0.00 0.00 0.00 60 1019.0
20260504023649 19 146 4.8 4.8 0.00 0.00 0.00 59 1018.6
20260504023146 19 117 0.0 3.2 0.00 0.00 0.00 59 1018.6
20260504022647 19 142 3.2 4.8 0.00 0.00 0.00 58 1019.0
20260504022147 19 139 4.8 6.4 0.00 0.00 0.00 58 1018.6
20260504021646 20 149 3.2 3.2 0.00 0.00 0.00 57 1018.6
20260504021146 20 127 0.0 3.2 0.00 0.00 0.00 55 1018.3
20260504020646 20 127 4.8 6.4 0.00 0.00 0.00 54 1018.6
20260504020146 20 108 3.2 4.8 0.00 0.00 0.00 53 1018.3
20260504015646 20 165 3.2 6.4 0.00 0.00 0.00 51 1018.3
20260504015147 20 171 3.2 4.8 0.00 0.00 0.00 49 1018.3
20260504014647 20 197 3.2 4.8 0.00 0.00 0.00 49 1018.3
20260504014146 20 205 3.2 6.4 0.00 0.00 0.00 49 1018.3
20260504013646 20 197 4.8 6.4 0.00 0.00 0.00 48 1017.9
20260504013146 21 199 3.2 4.8 0.00 0.00 0.00 47 1018.3
20260504012647 21 212 1.6 4.8 0.00 0.00 0.00 46 1017.9
20260504012146 21 220 1.6 1.6 0.00 0.00 0.00 46 1017.9